CST,Max TemperatureF,Mean TemperatureF,Min TemperatureF,Max Dew PointF,MeanDew PointF,Min DewpointF,Max Humidity, Mean Humidity, Min Humidity, Max Sea Level PressureIn, Mean Sea Level PressureIn, Min Sea Level PressureIn, Max VisibilityMiles, Mean VisibilityMiles, Min VisibilityMiles, Max Wind SpeedMPH, Mean Wind SpeedMPH, Max Gust SpeedMPH,PrecipitationIn, CloudCover, Events, WindDirDegrees
2012-12-1,66,50,33,50,43,34,100,83,56,30.37,30.30,30.26,10,7,0,10,1,17,0.00,1,Fog,181
2012-12-2,69,56,42,54,51,43,100,73,53,30.30,30.25,30.20,10,10,7,16,4,28,0.00,2,,198
2012-12-3,71,58,44,54,50,43,100,80,53,30.29,30.24,30.19,10,9,5,9,1,16,0.00,2,,177
2012-12-4,71,56,42,57,53,43,100,73,57,30.26,30.20,30.15,10,10,5,13,4,23,0.00,6,Rain,196
2012-12-5,62,48,32,61,41,30,100,72,37,30.30,30.23,30.15,10,10,5,12,3,,0.00,3,Rain,11
2012-12-6,53,42,32,48,44,30,100,87,67,30.20,30.13,30.08,10,10,5,6,1,,0.00,7,Rain,196
2012-12-7,64,55,46,54,50,45,100,81,68,30.08,30.01,29.95,10,10,10,10,3,,0.00,7,,165
2012-12-8,69,62,55,57,55,54,94,80,60,30.00,29.97,29.93,10,10,1,13,5,18,0.00,6,,186
2012-12-9,69,62,55,63,59,55,100,86,68,30.02,29.97,29.83,10,10,4,14,4,22,0.01,5,Rain,198
2012-12-10,64,53,42,59,52,36,100,90,73,29.93,29.78,29.65,10,9,3,15,7,23,0.58,7,Rain-Thunderstorm,251
2012-12-11,39,34,30,37,31,28,100,87,70,30.23,30.10,29.93,10,10,7,9,5,,0.00,5,,340
2012-12-12,48,37,26,34,29,27,100,83,43,30.36,30.30,30.23,10,8,0,7,0,,0.00,1,Fog,42
2012-12-13,55,40,24,39,31,23,100,84,51,30.39,30.34,30.29,10,8,1,4,0,,0.00,0,,166
2012-12-14,57,42,28,45,34,27,100,88,51,30.40,30.30,30.18,10,6,0,4,0,,0.00,3,Fog,112
2012-12-15,60,48,35,52,41,36,100,77,51,30.19,30.07,29.96,10,9,5,14,3,26,0.08,4,Rain,184
2012-12-16,60,56,53,57,54,52,100,92,82,29.97,29.88,29.78,10,10,5,17,8,29,0.00,7,Rain,190
2012-12-17,57,50,44,57,50,43,100,97,88,29.81,29.72,29.60,10,8,1,9,2,,0.08,6,Rain,185
2012-12-18,55,45,35,46,39,34,100,77,47,29.94,29.86,29.69,10,10,7,13,3,17,0.00,4,Rain,286
2012-12-19,60,46,33,45,41,34,100,80,55,30.07,30.03,29.93,10,10,7,8,1,,0.00,0,,186
2012-12-20,53,45,37,52,42,28,100,86,57,30.00,29.74,29.54,10,9,2,22,5,39,0.62,6,Rain,227
2012-12-21,39,34,30,30,26,19,87,69,56,30.13,29.91,29.73,10,8,1,20,10,36,0.00,6,Rain-Snow,296
2012-12-22,44,34,24,27,23,19,100,71,39,30.30,30.21,30.14,10,10,7,12,4,24,0.00,1,,316
2012-12-23,48,34,21,43,31,21,100,87,50,30.16,30.07,29.97,10,9,4,10,1,16,0.11,4,Rain,173
2012-12-24,48,45,42,46,45,43,100,97,93,29.97,29.89,29.82,10,6,0,10,2,,0.27,8,Fog-Rain,160
2012-12-25,51,46,42,48,44,43,100,94,76,30.05,29.98,29.80,10,4,0,9,0,,0.20,8,Fog-Rain,67
2012-12-26,50,42,33,48,41,30,100,91,81,29.94,29.63,29.43,10,8,2,14,5,25,0.48,8,Rain-Snow-Thunderstorm,276
2012-12-27,33,33,33,32,30,28,93,86,81,30.14,30.09,29.95,10,10,10,10,5,18,0.00,8,,338
2012-12-28,42,38,33,39,33,28,100,85,70,30.13,29.99,29.73,10,10,5,7,1,,0.00,7,Rain,191
2012-12-29,42,37,30,41,33,25,100,88,75,30.23,29.94,29.71,10,7,1,14,4,22,0.04,8,Rain-Snow,313
2012-12-30,39,32,24,28,25,21,100,79,56,30.48,30.40,30.24,10,10,10,12,3,24,0.00,2,Snow,307
2012-12-31,42,33,24,36,29,25,100,81,57,30.36,30.24,30.08,10,10,7,8,1,,0.00,4,Rain,160